EST,Max TemperatureF,Mean TemperatureF,Min TemperatureF,Max Dew PointF,MeanDew PointF,Min DewpointF,Max Humidity, Mean Humidity, Min Humidity, Max Sea Level PressureIn, Mean Sea Level PressureIn, Min Sea Level PressureIn, Max VisibilityMiles, Mean VisibilityMiles, Min VisibilityMiles, Max Wind SpeedMPH, Mean Wind SpeedMPH, Max Gust SpeedMPH,PrecipitationIn, CloudCover, Events, WindDirDegrees
2013-11-1,65,57,48,58,48,42,93,72,51,29.69,29.46,29.20,10,10,4,41,20,58,0.21,7,Rain,234
2013-11-2,51,45,39,47,43,32,96,85,74,30.02,29.73,29.63,10,7,2,20,8,25,0.40,8,Rain,284
2013-11-3,39,34,28,32,23,20,78,63,48,30.56,30.33,30.04,10,10,10,15,8,20,0.00,6,,342
2013-11-4,43,34,24,25,21,17,92,64,36,30.69,30.60,30.47,10,10,10,15,6,18,0.00,4,,132
2013-11-5,58,48,38,34,26,17,52,45,38,30.50,30.45,30.35,10,10,10,15,8,22,0.00,5,,199
2013-11-6,67,58,48,54,43,33,80,64,48,30.34,30.06,29.81,10,10,8,21,10,30,0.04,7,Rain,200
2013-11-7,58,49,39,54,37,28,93,73,53,30.01,29.93,29.80,10,10,7,23,11,31,0.25,8,Rain,278
2013-11-8,44,40,35,33,29,24,82,66,49,30.25,30.11,29.97,10,9,2,26,11,36,0.05,7,Rain-Snow,276
2013-11-9,51,42,33,42,31,27,82,62,42,30.24,30.03,29.79,10,10,7,17,10,24,0.02,8,Rain,208
2013-11-10,51,46,40,40,35,30,83,71,58,30.17,29.92,29.79,10,10,6,33,17,44,0.04,7,Rain,270
2013-11-11,46,39,31,36,30,27,92,77,62,30.18,30.07,29.94,10,6,0,26,12,33,0.42,7,Fog-Rain-Snow,262
2013-11-12,33,29,25,25,21,17,81,70,59,30.41,30.31,30.14,10,8,1,21,10,26,0.01,7,Snow,307
2013-11-13,38,28,17,26,19,13,91,69,47,30.45,30.34,30.09,10,10,9,25,12,33,T,4,Snow,252
2013-11-14,50,43,35,27,19,14,59,43,26,30.13,30.08,30.03,10,10,10,28,15,36,0.00,4,,234
2013-11-15,52,46,40,25,21,18,42,37,32,30.14,30.10,30.07,10,10,10,15,8,18,0.00,7,,214
2013-11-16,60,51,41,40,32,22,63,49,34,30.27,30.17,30.06,10,10,10,10,5,15,0.00,4,,188
2013-11-17,62,57,52,53,49,41,86,75,63,30.04,29.78,29.39,10,9,1,39,13,49,0.20,7,Rain,184
2013-11-18,56,47,37,47,34,26,83,68,52,29.91,29.64,29.40,10,10,8,44,25,63,0.02,8,Rain-Snow,258
2013-11-19,38,32,25,29,25,21,81,67,52,30.48,30.22,29.92,10,10,6,26,11,35,0.01,7,Snow,296
2013-11-20,39,30,21,21,19,18,92,68,44,30.63,30.55,30.48,10,10,10,13,5,17,0.00,4,,119
2013-11-21,45,38,30,37,24,13,79,57,35,30.48,30.41,30.28,10,10,8,18,9,24,0.01,6,Rain,194
2013-11-22,48,41,33,47,40,26,96,86,75,30.25,30.10,29.99,10,6,1,25,8,35,0.27,8,Rain,248
2013-11-23,36,28,19,27,20,8,85,71,56,30.22,30.10,30.00,10,6,0,30,15,40,0.02,7,Snow,286
2013-11-24,24,21,17,16,12,9,80,69,57,30.43,30.34,30.20,10,6,1,23,13,32,0.02,7,Snow,290
2013-11-25,35,26,17,21,13,9,77,56,35,30.42,30.28,30.13,10,9,5,22,11,29,T,7,Snow,216
2013-11-26,37,35,33,33,28,23,100,82,64,30.17,30.05,29.84,10,6,0,20,7,26,0.44,8,Fog-Snow,173
2013-11-27,35,29,23,32,27,17,96,83,69,29.91,29.72,29.61,10,4,0,22,12,29,0.24,8,Fog-Snow,308
2013-11-28,28,21,14,18,15,8,91,73,55,30.46,30.21,29.96,10,6,0,18,6,25,0.03,7,Snow,278
2013-11-29,28,19,10,21,15,7,96,71,46,30.78,30.62,30.44,10,8,2,12,4,15,0.03,4,Snow,321
2013-11-30,33,20,7,22,14,4,92,71,50,30.76,30.50,30.22,10,10,6,17,6,23,0.00,5,,180